Flag for Faroe Islands Weather past 2 weeks in Tórshavn, Faroe Islands, Faroe Islands

Now
52 °F

Passing clouds.


Feels Like: 45 °F
Forecast: 53 / 56 °F
Wind: 23 mph from East

Location: Soervaag / Vagar

Current Time: Aug 28, 2014 at 8:07:47 AM

Latest Report: Aug 28, 2014 at 7:20 AM


Visibility: N/A

Pressure: 29.83 "Hg

Humidity: 88%

Dew point: 48 °F

Location of TórshavnLocation

Historic Weather in Tórshavn — Graph

°F

Tórshavn temperature yesterday

Maximum temperature yesterday: 57 °F (at 1:20 PM)
Minimum temperature yesterday: 46 °F (at 4:50 AM)
Average temperature yesterday: 52 °F

Past Weeks' High & Low Weather Summary

 TemperatureHumidityPressure
High57 °F (Aug 27, 1:20 PM)100% (Aug 15, 1:50 AM)30.04 "Hg (Aug 15, 1:50 AM)
Low43 °F (Aug 26, 2:50 AM)62% (Aug 23, 11:50 AM)29.27 "Hg (Aug 16, 11:50 AM)
Average50 °F85%29.86 "Hg
* Reported Aug 13 6:20 AM — Aug 28 6:50 AM, Tórshavn, Weather by CustomWeather, © 2014

Note: Actual official high and low records may vary slightly from our data, if they occured in-between our weather recording intervals... More about our weather records

Advertising

Tórshavn weather history for previous 24 hours

 ConditionsComfort  
Time TempWeatherWind HumidityBarometerVisibility
6:50 AM
Aug 28
52 °FOvercast.21 mph88%29.83 "HgN/A
6:20 AM52 °FPassing clouds.22 mph88%29.83 "HgN/A
5:50 AM52 °FPassing clouds.24 mph88%29.83 "HgN/A
5:20 AM52 °FPassing clouds.23 mph88%29.83 "HgN/A
4:50 AM52 °FPassing clouds.22 mph88%29.86 "HgN/A
4:20 AM52 °FPassing clouds.22 mph88%29.86 "HgN/A
3:50 AM52 °FPassing clouds.21 mph94%29.86 "HgN/A
3:20 AM52 °FPassing clouds.21 mph94%29.86 "HgN/A
2:50 AM52 °FPassing clouds.22 mph88%29.89 "HgN/A
2:20 AM52 °FPassing clouds.21 mph94%29.89 "HgN/A
1:50 AM52 °FPassing clouds.22 mph94%29.89 "HgN/A
1:20 AM52 °FPassing clouds.18 mph94%29.92 "HgN/A
12:50 AM52 °FCool.20 mph88%29.92 "HgN/A
12:20 AM52 °FPassing clouds.18 mph88%29.92 "HgN/A
11:50 PM
Aug 27
52 °FCool.15 mph88%29.92 "HgN/A
11:20 PM52 °FCool.14 mph88%29.92 "HgN/A
10:50 PM52 °FCool.13 mph88%29.95 "HgN/A
10:20 PM52 °FPassing clouds.15 mph94%29.95 "HgN/A
9:50 PM52 °FPassing clouds.15 mph94%29.95 "HgN/A
9:20 PM52 °FScattered clouds.13 mph94%29.95 "HgN/A
8:50 PM52 °FPartly sunny.10 mph94%29.98 "HgN/A
8:20 PM52 °FPassing clouds.13 mph94%29.98 "HgN/A
7:50 PM54 °FCool.15 mph88%29.98 "HgN/A
6:50 PM54 °FCool.15 mph82%29.98 "HgN/A
6:20 PM55 °FCool.12 mph77%29.98 "HgN/A
5:50 PM55 °FPassing clouds.14 mph77%29.98 "HgN/A
5:20 PM55 °FCool.13 mph82%29.98 "HgN/A
4:50 PM57 °FCool.10 mph77%29.98 "HgN/A
3:50 PM57 °FPassing clouds.13 mph77%30.01 "HgN/A
3:20 PM57 °FPartly sunny.13 mph77%30.01 "HgN/A
2:50 PM55 °FCool.12 mph77%30.01 "HgN/A
2:20 PM57 °FCool.10 mph72%30.01 "HgN/A
1:50 PM57 °FCool.15 mph77%30.01 "HgN/A
1:20 PM57 °FPassing clouds.13 mph72%30.04 "HgN/A
12:50 PM55 °FPassing clouds.9 mph82%30.04 "HgN/A
12:20 PM55 °FPassing clouds.10 mph82%30.01 "HgN/A
11:20 AM55 °FCool.9 mph77%30.04 "HgN/A
10:50 AM55 °FCool.10 mph72%30.04 "HgN/A
10:20 AM55 °FCool.8 mph72%30.04 "HgN/A
9:50 AM54 °FCool.9 mph77%30.04 "HgN/A
9:20 AM54 °FCool.8 mph77%30.04 "HgN/A
8:50 AM52 °FCool.8 mph88%30.04 "HgN/A
8:20 AM50 °FCool.9 mph94%30.04 "HgN/A
Weather by CustomWeather, © 2014

See weather overviewHow to use our weather pages